This demonstration page uses our WeatherBlox Daily Observations layout. Learn more.

Left ArrowRight Arrow

39.92423, -83.80882

Hourly Observations for September 4, 2015

Temp ( °F °C ) Dew Point ( °F °C ) Humidity (%) Winds ( mph kmh ) Pressure ( in mb ) Visibility ( mi km ) Precip ( " mm )
12:58 am 00:58 Clear 73 22.9 69 20.5 86 86 SSE 2 4 29.95 1014 10 16 N/A
1:58 am 01:58 Clear 71 21.8 68 20.1 90 90 N N/A 29.96 1014 10 16 N/A
2:58 am 02:58 Clear 71 21.6 68 20.2 92 92 E 1 2 29.97 1015 10 16 N/A
3:58 am 03:58 Mostly Cloudy 72 22 69 20.3 90 90 ESE 1 2 29.97 1015 10 16 N/A
4:58 am 04:58 Mostly Clear 71 21.4 69 20.3 93 93 SE 3 6 29.98 1015 10 16 N/A
5:53 am 05:53 Partly Cloudy 70 21 68 20 94 94 E 3 6 29.97 1015 10 16 N/A
5:58 am 05:58 Partly Cloudy 69 20.6 68 19.8 95 95 E 2 4 29.99 1016 10 16 N/A
6:58 am 06:58 Clear 70 20.9 67 19.7 93 93 ENE 2 4 30.00 1016 10 16 N/A
7:58 am 07:58 Sunny 70 21.1 68 19.8 92 92 SSE 2 4 30.02 1017 10 16 N/A
8:58 am 08:58 Sunny 72 22.4 69 20.3 88 88 SE 3 6 30.04 1017 10 16 N/A
9:58 am 09:58 Mostly Sunny 75 23.9 69 20.3 80 80 SSE 5 7 30.04 1017 10 16 N/A
10:58 am 10:58 Mostly Sunny 80 26.8 70 21.2 71 71 SE 3 6 30.05 1018 10 16 N/A
11:58 am 11:58 Mostly Sunny 83 28.6 72 22 68 68 S 2 4 30.05 1018 10 16 N/A
12:58 pm 12:58 Mostly Sunny 87 30.4 72 22.3 62 62 SE 5 7 30.04 1017 10 16 N/A
1:26 pm 13:26 Mostly Cloudy with Thunderstorms 86 30 72 22 62 62 SE 6 9 30.02 1017 10 16 N/A
1:42 pm 13:42 Mostly Cloudy with Thunderstorms 86 30 73 23 66 66 NW 10 17 30.03 1017 10 16 N/A
1:47 pm 13:47 Mostly Cloudy with Thunderstorms 84 29 73 23 70 70 WNW 13 20 30.03 1017 6 10 N/A
1:52 pm 13:52 Mostly Cloudy with Thunderstorms 81 27 72 22 74 74 W 15 24 30.04 1017 4 6 N/A
1:58 pm 13:58 Mostly Cloudy with Thunderstorms 79 25.9 72 22 79 79 WSW 15 24 30.04 1017 7 11 0.03 0.76
2:05 pm 14:05 Mostly Cloudy with Thunderstorms 75 24 70 21 83 83 SSW 13 20 30.05 1018 7 11 N/A
2:48 pm 14:48 Mostly Cloudy 75 24 68 20 78 78 E 5 7 30.04 1017 10 16 N/A
2:58 pm 14:58 Mostly Cloudy 76 24.5 68 20.2 77 77 E 5 7 30.03 1017 10 16 0.02 0.51
3:57 pm 15:57 Mostly Cloudy with Nearby Thunderstorms 86 29.9 70 21.2 60 60 WNW 3 6 30.00 1016 10 16 N/A
4:33 pm 16:33 Cloudy with Thunderstorms 75 24 63 17 65 65 N 10 17 30.04 1017 10 16 N/A
4:45 pm 16:45 Cloudy with Thunderstorms 75 24 63 17 65 65 N 6 9 30.06 1018 N/A N/A
4:57 pm 16:57 Cloudy with Heavy Rain and Nearby Thunderstorms 73 23 66 19 78 78 NNW 7 11 30.03 1017 3 4 N/A
4:58 pm 16:58 Cloudy with Thunderstorms 73 23 66 18.7 77 77 NNW 7 11 30.06 1018 6 10 0.10 2.54
5:08 pm 17:08 Cloudy with Strong Thunderstorms 72 22 66 19 83 83 VRB 2 4 30.06 1018 2 3 N/A
5:11 pm 17:11 Cloudy with Strong Thunderstorms 72 22 66 19 83 83 SSE 16 26 30.04 1017 2 2 N/A
5:15 pm 17:15 Mostly Cloudy with Thunderstorms 72 22 61 16 69 69 VRB 5 7 30.06 1018 4 6 N/A
5:35 pm 17:35 Mostly Cloudy with Thunderstorms 70 21 66 19 88 88 ESE 6 9 30.04 1017 10 16 N/A
5:58 pm 17:58 Mostly Cloudy with Nearby Thunderstorms 70 20.9 67 19.7 93 93 SSW 8 13 30.06 1018 10 16 0.33 8.38
6:09 pm 18:09 Mostly Cloudy with Nearby Thunderstorms 70 21 68 20 94 94 ESE 3 6 30.06 1018 10 16 N/A
6:58 pm 18:58 Mostly Cloudy 70 21 66 18.9 88 88 VRB 5 7 30.06 1018 10 16 0.01 0.25
7:40 pm 19:40 Cloudy with Nearby Thunderstorms 70 21 66 19 88 88 SW 7 11 30.11 1020 10 16 N/A
7:50 pm 19:50 Cloudy with Thunderstorms 70 21 68 20 94 94 S 9 15 30.11 1020 7 11 N/A
7:58 pm 19:58 Cloudy with Thunderstorms 69 20.8 67 19.6 93 93 SSW 10 17 30.11 1020 7 11 0.01 0.25
8:45 pm 20:45 Cloudy with Light Rain 70 21 68 20 94 94 E 3 6 30.12 1020 10 16 N/A
8:58 pm 20:58 Cloudy with Light Rain 69 20.6 68 20 96 96 SE 5 7 30.11 1020 10 16 0.03 0.76
9:58 pm 21:58 Partly Cloudy 69 20.5 65 18.5 88 88 SE 13 20 30.06 1018 10 16 0.02 0.51
10:58 pm 22:58 Mostly Cloudy 69 20.6 65 18.4 87 87 NNW 6 9 30.08 1019 10 16 N/A
11:58 pm 23:58 Cloudy 67 19.4 66 18.7 96 96 W 2 4 30.09 1019 10 16 N/A

Powered by AerisWeather